Flag for U.S.A. Weather past 2 weeks in Las Cruces, New Mexico, U.S.A.

33 °F


Feels Like: 26 °F
Forecast: 27 / 56 °F
Wind: 8 mph from Northwest

Location: Las Cruces International

Current Time: Dec 1, 2015 at 12:43:16 AM

Latest Report: Nov 30, 2015 at 11:55 PM

Visibility: 10 mi

Pressure: 30.08 "Hg (25.93 "Hg at 1187m altitude)

Humidity: 57%

Dew point: 19 °F

Location of Las CrucesLocation

Historic Weather in Las Cruces — Graph


Las Cruces temperature yesterday

Maximum temperature yesterday: 55 °F (at 3:15 PM)
Minimum temperature yesterday: 32 °F (at 6:15 AM)
Average temperature yesterday: 43 °F

Past Weeks' High & Low Weather Summary

High75 °F (Nov 25, 3:15 PM)99% (Nov 29, 8:15 AM)30.37 "Hg (Nov 29, 8:15 AM)
Low24 °F (Nov 22, 6:55 AM)12% (Nov 24, 3:55 PM)29.58 "Hg (Nov 16, 12:55 PM)
Average47 °F57%30.06 "Hg
* Reported Nov 15 11:55 PM — Nov 30 11:15 PM, Las Cruces, Weather by CustomWeather, © 2015

Note: Actual official high and low records may vary slightly from our data, if they occured in-between our weather recording intervals... More about our weather records


Las Cruces weather history for previous 24 hours

Time TempWeatherWind HumidityBarometerVisibility
11:15 PM
Mon, Nov 30
35 °FClear.6 mph47%30.08 "Hg10 mi
10:55 PM35 °FClear.8 mph49%30.08 "Hg10 mi
10:35 PM36 °FClear.3 mph46%30.08 "Hg10 mi
9:55 PM36 °FClear.6 mph47%30.08 "Hg10 mi
9:15 PM39 °FClear.3 mph40%30.08 "Hg10 mi
8:55 PM42 °FClear.5 mph32%30.08 "Hg10 mi
8:15 PM44 °FClear.5 mph29%30.07 "Hg10 mi
7:55 PM44 °FClear.3 mph29%30.07 "Hg10 mi
7:35 PM44 °FClear.No wind29%30.08 "Hg10 mi
7:15 PM44 °FClear.No wind30%30.07 "Hg10 mi
6:55 PM46 °FClear.No wind27%30.07 "Hg10 mi
6:15 PM46 °FClear.3 mph26%30.07 "Hg10 mi
5:55 PM47 °FClear.3 mph27%30.06 "Hg10 mi
4:55 PM49 °FSunny.3 mph27%30.06 "Hg10 mi
4:15 PM53 °FSunny.8 mph20%30.05 "Hg10 mi
3:35 PM54 °FSunny.7 mph19%30.04 "Hg10 mi
3:15 PM55 °FSunny.8 mph19%30.05 "Hg10 mi
2:55 PM55 °FSunny.7 mph18%30.05 "Hg10 mi
2:15 PM54 °FSunny.10 mph21%30.06 "Hg10 mi
1:55 PM54 °FSunny.12 mph22%30.05 "Hg10 mi
1:35 PM54 °FSunny.9 mph20%30.05 "Hg10 mi
1:15 PM54 °FSunny.10 mph21%30.06 "Hg10 mi
12:55 PM53 °FSunny.10 mph23%30.07 "Hg10 mi
12:35 PM53 °FSunny.12 mph20%30.08 "Hg10 mi
12:15 PM53 °FSunny.10 mph22%30.08 "Hg10 mi
11:55 AM52 °FSunny.9 mph23%30.09 "Hg10 mi
11:35 AM52 °FSunny.5 mph26%30.10 "Hg10 mi
11:15 AM50 °FSunny.6 mph26%30.11 "Hg10 mi
10:55 AM51 °FSunny.3 mph34%30.12 "Hg10 mi
10:15 AM49 °FSunny.No wind26%30.12 "Hg10 mi
9:55 AM48 °FSunny.3 mph32%30.12 "Hg10 mi
9:35 AM47 °FSunny.No wind35%30.12 "Hg10 mi
9:15 AM47 °FSunny.No wind25%30.12 "Hg10 mi
8:55 AM45 °FSunny.No wind31%30.12 "Hg10 mi
8:35 AM42 °FSunny.3 mph38%30.11 "Hg10 mi
8:15 AM40 °FSunny.7 mph39%30.10 "Hg10 mi
7:55 AM38 °FSunny.6 mph45%30.09 "Hg10 mi
7:35 AM34 °FSunny.7 mph56%30.08 "Hg10 mi
7:15 AM32 °FSunny.6 mph60%30.08 "Hg10 mi
6:55 AM33 °FSunny.7 mph54%30.08 "Hg10 mi
6:35 AM34 °FClear.13 mph54%30.06 "Hg10 mi
6:15 AM32 °FClear.10 mph63%30.06 "Hg10 mi
5:55 AM33 °FClear.8 mph61%30.07 "Hg10 mi
5:35 AM33 °FClear.8 mph60%30.06 "Hg10 mi
5:15 AM33 °FClear.10 mph60%30.05 "Hg10 mi
4:55 AM34 °FClear.12 mph58%30.04 "Hg10 mi
4:35 AM34 °FClear.10 mph59%30.04 "Hg10 mi
4:15 AM34 °FClear.8 mph61%30.03 "Hg10 mi
3:55 AM35 °FClear.9 mph59%30.03 "Hg10 mi
3:35 AM33 °FClear.9 mph67%30.03 "Hg10 mi
3:15 AM33 °FClear.6 mph63%30.03 "Hg10 mi
2:55 AM37 °FClear.8 mph52%30.03 "Hg10 mi
2:35 AM39 °FClear.8 mph47%30.03 "Hg10 mi
2:15 AM39 °FClear.7 mph45%30.03 "Hg10 mi
1:55 AM40 °FClear.5 mph43%30.03 "Hg10 mi
1:35 AM39 °FClear.No wind45%30.04 "Hg10 mi
12:55 AM41 °FClear.7 mph47%30.03 "Hg10 mi
12:35 AM44 °FClear.7 mph39%30.04 "Hg10 mi
12:15 AM39 °FClear.7 mph58%30.04 "Hg10 mi
Weather by CustomWeather, © 2015

See weather overviewHow to use our weather pages